Airfield :
LOGIN :

Register | Disclaimer

   EN    FR    IT 

 










Legend :    VFR   Marginal VFR   IFR   Intensive IFR   Very Intensive IFR
Visi :
Ceiling :
>= 8 km
>= 3000ft
5 to 8 km
1000 to 3000 ft
1500m to 5 km
500 to 1000 ft
800 to 1500m
200 to 500 ft
< 800m
< 200 ft
Symbols :   Thunderstorms  Fog  Heavy snow  Heavy precipitations  Wind > 20 kt
SIGMETs :     Misc.  Thunderstorms  Icing  Turbulence  Mountain Waves  Volcanic Ashes







- Airport Elevation : 308 ft
- IATA code : POZ


EPPO - Poznan-Lawica

CURRENT METAR :
  • 171400Z 13006KT CAVOK 20/08 Q1020

EXPIRED METARs :
  • 171330Z 13008KT CAVOK 20/08 Q1020
  • 171300Z 13005KT CAVOK 21/08 Q1020
  • 171230Z 16005KT 120V210 CAVOK 21/08 Q1020
  • 171200Z 14006KT 120V190 CAVOK 20/07 Q1020
  • 171130Z 17003KT 140V210 CAVOK 20/07 Q1020

TAF TAF EPPO
Valid from the 17 at 12:00 until the 18 at 12:00 UTC


171130Z 1712/1812 VRB03KT CAVOK
PROB40 1802/1808 2500 BR
PROB30
TEMPO 1804/1807 0700 FG
No reported NOTAMs for that airfield.



MET'MAP, your aeronautical weather chart ! - Copyright ORBIFLY December 2007 - Disclaimer

ORBIFLY MET'MAP TEAM :

Programming & Development : Alexandra Zaïnal
Concept & Development : Baudouin d'Aumeries
Co-Development & Prog : Marc-Olivier Méhu
Technical & hardware support : Manuel Goepfert

Contact : metmap@orbifly.com




SOURCES & CREDITS :

   NOAA